EN

Hourly Weather Borzymowo

Today, 10 May, Monday

Time Temperature Precipitation Wind Pressure Humidity
00:00 +9°C° 0 mm 5 mps 745 mmHg 87%
01:00 +9°C° 0 mm 5 mps 745 mmHg 87%
02:00 +9°C° 0 mm 5 mps 745 mmHg 88%
03:00 +8°C° 0 mm 5 mps 744 mmHg 89%
04:00 +8°C° 0 mm 5 mps 744 mmHg 90%
05:00 +10°C° 0 mm 5 mps 745 mmHg 85%
06:00 +12°C° 0 mm 5 mps 745 mmHg 80%
07:00 +14°C° 0 mm 6 mps 745 mmHg 76%
08:00 +16°C° 0 mm 6 mps 745 mmHg 72%
09:00 +17°C° 0 mm 7 mps 745 mmHg 68%
10:00 +20°C° 0 mm 7 mps 745 mmHg 63%
11:00 +21°C° 0 mm 7 mps 745 mmHg 63%
12:00 +21°C° 0 mm 7 mps 744 mmHg 62%
13:00 +22°C° 0 mm 7 mps 744 mmHg 61%
14:00 +22°C° 0 mm 7 mps 744 mmHg 62%
15:00 +22°C° 0 mm 7 mps 744 mmHg 64%
16:00 +21°C° 0 mm 7 mps 744 mmHg 65%
17:00 +20°C° 0 mm 6 mps 745 mmHg 69%
18:00 +19°C° 0 mm 6 mps 745 mmHg 73%
19:00 +17°C° 0 mm 5 mps 745 mmHg 76%
20:00 +16°C° 0 mm 5 mps 745 mmHg 78%
21:00 +15°C° 0 mm 6 mps 745 mmHg 79%
22:00 +15°C° 0 mm 6 mps 745 mmHg 80%
23:00 +14°C° 0 mm 6 mps 745 mmHg 82%

Tomorrow, 11 May, Tuesday

Time Temperature Precipitation Wind Pressure Humidity
00:00 +14°C° 0 mm 6 mps 745 mmHg 84%
01:00 +13°C° 0 mm 5 mps 745 mmHg 86%
02:00 +12°C° 0 mm 5 mps 745 mmHg 87%
03:00 +12°C° 0 mm 5 mps 745 mmHg 88%
04:00 +12°C° 0 mm 5 mps 745 mmHg 89%
05:00 +11°C° 0 mm 6 mps 745 mmHg 85%
06:00 +13°C° 0 mm 6 mps 745 mmHg 81%
07:00 +14°C° 0 mm 6 mps 745 mmHg 77%
08:00 +16°C° 0 mm 7 mps 745 mmHg 73%
09:00 +17°C° 0 mm 7 mps 745 mmHg 68%
10:00 +20°C° 0 mm 8 mps 745 mmHg 64%
11:00 +21°C° 0 mm 8 mps 744 mmHg 62%
12:00 +21°C° 0 mm 8 mps 744 mmHg 61%
13:00 +22°C° 0 mm 8 mps 744 mmHg 60%
14:00 +22°C° 0 mm 8 mps 744 mmHg 62%
15:00 +21°C° 0 mm 8 mps 744 mmHg 63%
16:00 +21°C° 0 mm 8 mps 743 mmHg 64%
17:00 +20°C° 0 mm 8 mps 743 mmHg 66%
18:00 +17°C° 0 mm 8 mps 743 mmHg 68%
19:00 +16°C° 0 mm 8 mps 743 mmHg 70%
20:00 +15°C° 0 mm 8 mps 743 mmHg 67%
21:00 +14°C° 0 mm 7 mps 744 mmHg 65%
22:00 +14°C° 0 mm 7 mps 744 mmHg 62%
23:00 +12°C° 0 mm 7 mps 743 mmHg 62%

Day after tomorrow, 12 May, Wednesday

Time Temperature Precipitation Wind Pressure Humidity
00:00 +12°C° 0 mm 7 mps 743 mmHg 63%
01:00 +11°C° 0 mm 6 mps 743 mmHg 63%
02:00 +11°C° 0 mm 6 mps 743 mmHg 68%
03:00 +11°C° 0 mm 6 mps 743 mmHg 73%
04:00 +11°C° 0 mm 6 mps 743 mmHg 77%
05:00 +12°C° 0 mm 7 mps 743 mmHg 77%
06:00 +14°C° 0 mm 7 mps 743 mmHg 76%
07:00 +15°C° 0 mm 7 mps 743 mmHg 76%
08:00 +17°C° 0 mm 7 mps 743 mmHg 72%
09:00 +18°C° 0 mm 7 mps 743 mmHg 69%
10:00 +21°C° 0 mm 8 mps 743 mmHg 65%
11:00 +21°C° 0 mm 7 mps 743 mmHg 63%
12:00 +22°C° 0 mm 7 mps 743 mmHg 61%
13:00 +22°C° 0 mm 7 mps 743 mmHg 59%
14:00 +22°C° 0 mm 7 mps 743 mmHg 60%
15:00 +21°C° 0 mm 6 mps 743 mmHg 62%
16:00 +21°C° 0 mm 6 mps 742 mmHg 63%
17:00 +19°C° 0 mm 6 mps 742 mmHg 66%
18:00 +16°C° 0 mm 5 mps 742 mmHg 69%
19:00 +14°C° 0 mm 4 mps 742 mmHg 71%
20:00 +12°C° 0 mm 4 mps 742 mmHg 75%
21:00 +11°C° 0 mm 3 mps 742 mmHg 79%
22:00 +10°C° 0 mm 3 mps 742 mmHg 83%
23:00 +9°C° 0 mm 3 mps 742 mmHg 85%

13 May, Thursday

Time Temperature Precipitation Wind Pressure Humidity
00:00 +8°C° 0 mm 3 mps 742 mmHg 87%
01:00 +7°C° 0 mm 2 mps 741 mmHg 89%
02:00 +7°C° 0 mm 2 mps 741 mmHg 90%
03:00 +7°C° 0 mm 2 mps 741 mmHg 90%
04:00 +6°C° 0 mm 2 mps 740 mmHg 91%
05:00 +8°C° 0 mm 2 mps 740 mmHg 85%
06:00 +10°C° 0 mm 2 mps 739 mmHg 78%
07:00 +13°C° 0 mm 2 mps 739 mmHg 72%
08:00 +14°C° 0 mm 2 mps 739 mmHg 68%
09:00 +15°C° 0 mm 2 mps 738 mmHg 64%
10:00 +17°C° 0 mm 2 mps 738 mmHg 59%
11:00 +17°C° 0 mm 2 mps 738 mmHg 62%
12:00 +17°C° 0 mm 3 mps 737 mmHg 64%
13:00 +16°C° 0 mm 3 mps 737 mmHg 67%
14:00 +14°C° 0.2 mm 3 mps 737 mmHg 72%
15:00 +13°C° 0.2 mm 3 mps 737 mmHg 77%
16:00 +12°C° 0.2 mm 3 mps 737 mmHg 83%
17:00 +13°C° 0.1 mm 2 mps 737 mmHg 86%
18:00 +12°C° 0.1 mm 2 mps 737 mmHg 89%
19:00 +11°C° 0.1 mm 1 mps 736 mmHg 92%
20:00 +11°C° 0 mm 1 mps 736 mmHg 92%
21:00 +11°C° 0 mm 1 mps 736 mmHg 92%
22:00 +10°C° 0 mm 0 mps 736 mmHg 92%
23:00 +11°C° 0 mm 1 mps 736 mmHg 93%

14 May, Friday

Time Temperature Precipitation Wind Pressure Humidity
00:00 +11°C° 0 mm 1 mps 736 mmHg 93%
01:00 +11°C° 0 mm 1 mps 736 mmHg 93%
02:00 +10°C° 0 mm 1 mps 736 mmHg 93%
03:00 +10°C° 0 mm 1 mps 736 mmHg 93%
04:00 +9°C° 0 mm 0 mps 736 mmHg 93%
05:00 +11°C° 0 mm 1 mps 736 mmHg 91%
06:00 +12°C° 0 mm 1 mps 736 mmHg 88%
07:00 +13°C° 0 mm 1 mps 737 mmHg 86%
08:00 +14°C° 0 mm 1 mps 737 mmHg 81%
09:00 +15°C° 0 mm 2 mps 737 mmHg 76%
10:00 +17°C° 0 mm 2 mps 737 mmHg 71%
11:00 +17°C° 0.1 mm 2 mps 737 mmHg 68%
12:00 +18°C° 0.1 mm 2 mps 738 mmHg 66%
13:00 +18°C° 0.1 mm 3 mps 738 mmHg 64%
14:00 +18°C° 0.1 mm 2 mps 738 mmHg 63%
15:00 +18°C° 0.1 mm 2 mps 738 mmHg 62%
16:00 +18°C° 0.1 mm 2 mps 738 mmHg 61%
17:00 +17°C° 0.1 mm 2 mps 738 mmHg 71%
18:00 +15°C° 0.1 mm 2 mps 738 mmHg 80%
19:00 +12°C° 0.1 mm 3 mps 738 mmHg 90%
20:00 +12°C° 0 mm 2 mps 739 mmHg 91%
21:00 +10°C° 0 mm 2 mps 739 mmHg 93%
22:00 +8°C° 0 mm 2 mps 739 mmHg 94%
23:00 +8°C° 0 mm 2 mps 739 mmHg 94%

15 May, Saturday

Time Temperature Precipitation Wind Pressure Humidity
00:00 +8°C° 0 mm 2 mps 740 mmHg 94%
01:00 +7°C° 0 mm 2 mps 740 mmHg 94%
02:00 +8°C° 0 mm 1 mps 740 mmHg 93%
03:00 +8°C° 0 mm 1 mps 740 mmHg 93%
04:00 +8°C° 0 mm 1 mps 740 mmHg 93%
05:00 +9°C° 0 mm 1 mps 741 mmHg 91%
06:00 +10°C° 0 mm 2 mps 741 mmHg 88%
07:00 +12°C° 0 mm 2 mps 741 mmHg 86%
08:00 +13°C° 0 mm 2 mps 741 mmHg 80%
09:00 +15°C° 0 mm 2 mps 741 mmHg 73%
10:00 +16°C° 0 mm 3 mps 741 mmHg 67%
11:00 +16°C° 0.1 mm 3 mps 741 mmHg 68%
12:00 +16°C° 0.1 mm 3 mps 742 mmHg 69%
13:00 +16°C° 0.1 mm 3 mps 742 mmHg 69%
14:00 +16°C° 0.2 mm 3 mps 742 mmHg 72%
15:00 +14°C° 0.2 mm 3 mps 742 mmHg 75%
16:00 +14°C° 0.2 mm 3 mps 742 mmHg 78%
17:00 +13°C° 0.1 mm 3 mps 742 mmHg 82%
18:00 +13°C° 0.1 mm 2 mps 742 mmHg 87%
19:00 +10°C° 0.1 mm 2 mps 742 mmHg 92%
20:00 +9°C° 0 mm 2 mps 742 mmHg 92%
21:00 +10°C° 0 mm 1 mps 742 mmHg 93%
22:00 +8°C° 0 mm 0 mps 742 mmHg 93%
23:00 +9°C° 0 mm 1 mps 742 mmHg 94%
Show more

We Need Your Consent

Meteoprog and our Service Providers may store and access personal data such as cookies, device identifiers or other similar technologies on your device and process such data to personalise content and ads, as well as provide social media features and to analyse the traffic.

  • Store and/or access information on your device

    Cookies, device identifiers or other information can be stored or accessed on your device for the purposes indicated above.

  • Personalised ads and content, ad and content measurement, audience insights, and products development

    Ads and content can be personalised based on a profile. More data can be added to better personalise ads and content. Ad and content performance can be measured. Insights about the audience who saw the ads and content can be derived. Such data can be used to develop or improve user’s experience, systems and software.

By clicking ‘I Agree’ you will allow the use of indicated cookies, device identifiers, web beacons or other similar technologies. Your settings can be changed in the browser on your device.

For certain purposes, legitimate interests may be relied on, rather than consent. You can read more about this in our Privacy and Cookie Policy.